SCP
0 0 0 0 0 0 0 0 0 0 0 0 0 0 0 0 0 0 0 0 0 0 0 1 1 1 1 1 0 0 0 0 0 0 0 0 0 0 0 0 0 0 0 0 0 0 0 0 0
0 0 0 0 0 0 0 0 0 0 0 0 0 0 0 0 0 0 0 0 0 0 0 1 1 1 1 1 0 0 0 0 0 0 0 0 0 0 0 0 0 0 0 0 0 0 0 0 0
0 0 0 0 0 0 0 0 0 0 0 0 0 0 0 0 0 0 0 0 0 0 0 1 1 1 1 1 1 0 0 0 0 0 0 0 0 0 0 0 0 0 0 0 0 0 0 0 0
0 0 0 0 0 0 0 0 0 0 0 0 0 0 0 0 0 0 0 0 0 0 0 1 1 1 1 1 1 0 0 0 0 0 0 0 0 0 0 0 0 0 0 0 0 0 0 0 0
0 0 0 0 0 0 0 0 0 0 0 0 0 0 0 0 0 0 0 0 0 0 0 1 1 1 1 1 1 0 0 0 0 0 0 0 0 0 0 0 0 0 0 0 0 0 0 0 0
0 0 0 0 0 0 0 0 0 0 0 0 0 0 0 0 0 0 0 0 0 0 0 1 1 1 1 1 1 0 0 0 0 0 0 0 0 0 0 0 0 0 0 0 0 0 0 0 0
0 0 0 0 0 0 0 0 0 0 0 0 0 0 0 0 0 0 0 0 0 0 0 1 1 1 1 1 0 0 0 0 0 0 0 0 0 0 0 0 0 0 0 0 0 0 0 0 0
0 0 0 0 0 0 0 0 0 0 0 0 0 0 0 0 0 0 0 0 0 0 0 0 0 0 0 0 0 0 0 0 0 0 0 0 0 0 0 0 0 0 0 0 0 0 0 0 0
0 0 0 0 0 0 0 0 0 0 0 0 0 0 0 0 0 0 0 0 0 0 0 0 0 0 0 0 0 0 0 0 0 0 0 0 0 0 0 0 0 0 0 0 0 0 0 0 0
0 0 0 0 0 0 0 0 0 0 0 0 0 0 0 0 0 0 0 0 0 0 0 0 0 0 0 0 0 0 0 0 0 0 0 0 0 0 0 0 0 0 0 0 0 0 0 0 0
0 0 0 0 0 0 0 0 0 0 0 0 0 0 0 0 0 0 0 0 0 0 0 0 0 0 0 0 0 0 0 0 0 0 0 0 0 0 0 0 0 0 0 0 0 0 0 0 0
0 0 0 0 0 0 0 0 0 0 0 0 0 0 0 0 0 0 0 0 0 0 0 0 0 0 0 0 0 0 0 0 0 0 0 0 0 0 0 0 0 0 0 0 0 0 0 0 0
0 0 0 0 0 0 0 0 0 0 0 0 0 0 0 0 0 0 0 0 0 0 0 0 0 0 0 0 0 0 0 0 0 0 0 0 0 0 0 0 0 0 0 0 0 0 0 0 0
0 0 0 0 0 0 0 0 0 0 0 0 0 0 0 0 0 0 0 0 0 0 0 0 0 0 0 0 0 0 0 0 0 0 0 0 0 0 0 0 0 0 0 0 0 0 0 0 0
0 0 0 0 0 0 0 0 0 -0 0 0 0 0 0 0 0 0 0 0 0 0 0 0 0 0 0 0 0 0 0 0 0 0 0 0 0 0 0 0 0 0 0 0 0 0 0 0 0
0 0 0 0 0 0 0 0 -0 -0 0 0 0 0 0 0 0 0 0 0 0 0 0 0 0 0 0 0 0 0 0 0 0 0 0 0 0 0 0 0 0 0 0 0 0 0 0 0 0
0 0 0 0 0 0 0 0 -0 -0 0 0 0 0 0 0 0 0 0 0 0 0 1 0 0 0 0 0 0 0 0 0 0 0 0 0 0 0 0 0 0 0 0 0 0 0 0 0 0
0 0 0 0 -0 0 0 0 0 0 0 0 0 0 0 0 0 0 0 0 0 0 1 1 0 0 0 0 0 0 0 0 0 0 0 0 0 0 0 0 0 0 0 0 0 0 0 0 0
0 0 0 -0 0 0 0 -0 0 0 0 0 0 0 0 0 0 0 0 0 0 0 0 0 0 0 0 0 0 0 0 0 0 0 0 0 0 0 0 0 0 0 0 0 0 0 0 0 0
0 0 0 0 0 0 0 -0 -0 0 0 0 0 0 0 0 0 0 0 0 0 0 0 0 0 0 0 0 0 0 0 0 0 0 0 0 0 0 0 0 0 0 0 0 0 0 0 0 0
0 0 0 0 0 0 0 0 0 0 0 0 0 0 0 0 0 0 0 0 0 0 0 0 0 0 0 0 0 0 0 0 0 0 0 0 0 0 0 0 0 0 0 0 0 0 0 0 0
0 -0 0 0 0 0 0 0 0 0 0 0 -0 0 0 0 0 0 0 0 0 0 0 0 0 0 0 0 0 0 0 0 0 0 0 0 0 0 0 0 0 0 0 0 0 0 0 0 0
-0 -0 -0 0 0 0 0 0 0 -0 -0 -0 -0 -0 0 0 0 0 0 0 0 0 0 0 0 0 0 0 0 0 0 0 0 0 0 0 0 0 0 0 0 0 0 0 0 0 0 0 0
-0 -0 0 0 0 0 0 0 0 -0 -0 -0 -0 0 0 0 0 0 0 0 0 0 0 0 0 0 0 0 0 0 0 0 0 0 0 0 0 0 0 0 0 0 0 0 0 0 0 0 0
-0 -0 0 0 0 0 0 0 0 -0 0 0 0 0 0 0 0 0 0 0 0 0 0 0 0 0 0 0 0 0 0 0 0 0 0 0 0 0 0 0 0 0 0 0 0 0 0 0 0
-0 -0 0 0 0 0 0 0 0 0 0 0 0 0 0 0 0 0 0 0 0 0 0 0 0 0 0 0 0 0 0 0 0 0 0 0 0 0 0 0 0 0 0 0 0 0 0 0 0
0 0 0 0 0 0 0 0 0 0 0 0 0 0 0 0 0 0 0 0 0 0 0 0 0 0 0 0 0 0 0 0 0 0 0 0 0 0 0 0 0 0 0 0 0 0 0 0 0
0 0 0 0 0 0 0 0 0 0 0 0 0 0 0 0 0 0 0 0 0 0 0 0 0 0 0 0 0 0 0 0 0 0 0 0 0 0 0 0 0 0 0 0 0 0 0 0 0
0 0 0 0 0 0 0 0 0 0 0 0 0 0 0 0 0 0 0 0 0 0 0 0 0 0 0 0 0 0 0 0 0 0 0 0 0 0 0 0 0 0 0 0 0 0 0 0 0
0 0 0 0 0 0 0 0 0 0 0 0 0 0 0 0 0 0 0 0 0 0 0 0 0 0 0 0 0 0 0 0 0 0 0 0 0 0 0 0 0 0 0 0 0 0 0 0 0
Wind_Speed
2 3 4 3 3 0 7 8 5 4 5 4 4 5 7 9 8 6 1 9 11 14 15 19 22 22 21 20 19 18 18 17 17 17 17 17 16 16 16 15 15 15 15 15 15 15 15 15 15
1 3 4 4 4 7 9 7 9 9 6 1 1 2 3 6 4 3 3 8 12 14 14 15 22 22 22 21 20 19 19 18 17 17 17 16 16 16 16 16 16 15 15 15 15 15 14 15 15
1 3 3 4 7 11 8 6 10 7 6 3 2 2 4 5 4 5 5 10 12 13 12 15 22 22 22 21 20 20 19 18 18 17 17 17 16 16 16 16 16 15 15 14 14 14 14 14 14
2 2 2 5 16 11 7 3 3 3 3 4 3 4 4 3 3 4 7 12 13 12 11 15 23 23 22 21 20 20 19 19 18 17 17 17 16 16 16 15 15 15 14 13 13 14 13 13 14
2 3 5 11 18 8 6 5 2 2 2 2 2 3 5 3 1 6 10 12 13 12 11 14 22 23 22 21 21 20 19 19 18 17 17 17 16 16 15 15 14 14 14 13 13 13 13 13 13
2 3 9 17 17 8 7 6 4 6 5 3 3 3 5 2 3 8 10 10 10 11 11 13 21 21 21 21 21 20 19 19 18 17 17 17 16 16 15 15 14 13 13 13 13 13 13 12 13
5 6 12 13 12 10 8 6 7 8 9 8 5 3 4 2 4 8 9 9 8 9 10 10 13 16 19 20 20 19 19 18 18 17 17 16 16 16 15 14 14 13 13 13 13 13 12 12 12
4 5 11 11 11 11 5 6 6 10 10 5 7 6 6 4 7 9 9 9 9 8 8 9 10 11 12 13 17 17 17 17 17 16 15 15 15 15 15 13 13 13 13 13 12 12 11 11 11
4 9 16 13 9 6 4 6 4 4 4 4 5 5 4 8 12 12 10 10 11 11 8 9 10 10 10 10 13 15 16 15 15 13 14 12 7 7 8 10 12 13 12 12 12 11 11 10 10
7 13 18 8 5 4 5 6 4 3 4 4 2 1 4 12 14 15 16 17 17 16 13 11 11 11 11 9 9 8 7 9 8 7 8 6 5 5 6 9 11 12 11 11 11 11 10 7 4
7 12 8 7 6 5 6 6 4 5 8 7 6 5 9 12 14 16 17 17 17 16 14 13 12 12 11 8 7 5 5 6 7 8 8 6 5 5 4 3 4 5 6 4 6 6 4 4 3
8 10 9 7 6 7 7 6 6 9 11 5 6 8 12 14 16 17 17 17 14 14 15 13 13 12 11 9 7 6 6 6 6 7 9 6 4 4 4 3 3 3 3 4 4 3 4 4 4
12 11 11 10 9 9 9 11 10 13 11 6 4 8 13 15 15 14 13 14 14 15 15 15 14 13 11 10 8 7 7 7 7 7 7 7 6 5 4 3 3 3 3 3 3 3 3 3 3
7 8 10 10 11 10 12 13 11 14 7 6 7 11 13 14 14 12 13 14 16 16 16 15 15 14 12 10 8 8 7 7 7 7 7 8 6 6 5 4 4 3 3 3 3 3 3 2 2
5 8 11 11 11 7 7 14 15 12 6 8 9 11 13 13 13 15 16 15 16 16 16 16 15 14 14 12 10 8 7 8 7 7 8 8 7 7 6 5 4 3 3 4 3 3 3 2 2
3 6 9 7 7 6 7 17 13 6 7 10 9 9 11 12 13 13 13 13 13 14 15 16 15 15 15 12 10 8 8 8 7 7 7 8 8 8 6 5 4 4 4 4 4 3 3 2 2
3 6 9 8 5 4 8 13 10 6 8 10 9 9 10 10 11 11 12 13 13 14 15 16 16 16 15 12 10 8 8 8 7 7 7 8 9 9 7 5 5 5 4 3 4 2 2 2 2
5 6 7 8 4 5 10 14 13 7 9 10 9 9 10 12 14 11 12 12 12 13 13 15 15 15 14 11 8 7 8 7 7 8 8 9 8 9 7 6 6 6 5 4 3 3 2 2 2
7 8 10 11 7 7 12 15 15 10 9 9 10 10 11 13 12 10 11 11 11 12 14 15 16 16 14 11 11 11 10 9 8 8 9 10 10 10 8 6 6 6 6 6 6 4 3 2 2
9 11 12 10 7 7 11 16 14 11 12 12 12 12 12 11 8 9 10 11 14 15 16 16 17 17 17 13 11 8 8 6 6 7 9 11 11 11 9 9 7 7 6 6 6 5 3 2 2
9 9 9 10 10 7 8 11 11 9 10 10 10 12 11 13 12 11 12 13 13 15 17 16 18 18 18 15 9 7 6 5 6 9 9 11 12 11 10 10 9 8 8 7 7 6 6 4 2
9 7 9 10 7 5 2 7 8 7 9 10 10 10 11 12 11 10 11 12 14 16 16 16 17 17 17 16 14 15 12 11 12 9 8 9 11 12 11 11 10 9 7 8 7 6 5 5 4
6 5 6 8 6 6 4 6 9 5 8 9 9 10 10 10 10 11 12 13 14 14 14 15 16 17 17 18 18 17 14 10 7 7 10 10 10 11 12 12 11 10 8 9 8 7 6 5 5
4 3 5 4 2 6 6 6 8 5 7 6 7 8 9 8 9 9 9 10 11 11 11 13 15 17 17 18 19 19 17 13 11 11 12 10 8 9 12 12 11 11 9 9 9 8 8 6 5
1 0 2 2 2 6 4 6 9 6 6 7 7 7 7 6 7 8 7 9 10 10 12 13 15 17 18 19 19 20 19 17 16 14 13 11 9 9 13 12 11 10 9 9 8 8 8 7 7
2 3 2 2 3 4 3 7 8 6 5 5 5 4 4 5 6 7 8 9 10 11 12 13 15 17 18 19 19 18 17 14 12 13 12 13 11 11 12 13 12 11 10 10 9 7 7 7 7
2 3 2 2 3 4 5 6 8 4 4 4 5 5 5 5 5 6 7 8 10 11 13 15 16 16 17 18 18 17 17 15 14 13 12 10 9 9 11 13 12 11 11 11 10 7 8 7 7
3 1 1 1 3 5 5 5 4 5 5 6 6 6 8 7 6 5 6 7 8 10 11 13 15 16 16 17 17 14 16 16 14 12 14 13 12 11 12 13 12 11 11 11 10 8 8 8 7
1 1 2 2 3 3 5 6 3 2 4 6 7 8 8 8 7 6 6 6 6 7 8 11 13 13 13 15 15 14 14 14 13 13 14 13 12 12 13 13 13 12 12 11 10 9 9 9 8
2 2 2 2 4 4 5 8 3 3 4 6 9 9 9 8 7 5 5 4 4 6 7 9 11 12 13 14 14 14 13 13 13 14 13 13 13 13 13 13 13 12 12 12 12 11 10 10 10
Wind_Direction
292 89 85 67 66 223 234 230 213 223 224 221 192 182 190 189 179 214 261 147 144 154 163 166 164 161 159 156 153 149 146 144 142 139 136 133 131 128 125 121 117 113 110 108 107 104 102 101 98
141 111 76 85 161 221 243 222 217 218 213 206 216 208 216 240 232 202 157 158 150 155 160 162 164 161 158 157 154 152 149 146 144 142 139 137 134 130 127 123 118 114 111 108 107 106 105 103 100
132 122 133 151 202 214 228 218 223 236 244 250 268 243 221 232 209 192 180 156 149 155 158 163 162 160 157 156 155 154 151 149 147 145 141 139 136 133 128 124 120 116 115 113 112 110 107 105 102
109 94 122 206 229 223 215 211 206 249 263 225 202 270 265 259 208 188 156 155 152 155 157 164 161 160 158 157 156 154 152 150 149 145 142 140 137 132 129 125 122 120 118 118 117 114 110 108 105
96 151 211 233 237 230 226 240 241 252 251 206 173 252 272 303 144 146 152 158 157 155 157 164 162 161 159 158 157 156 154 152 150 147 144 141 137 133 130 128 126 126 125 124 121 118 115 112 108
170 180 218 235 238 230 229 224 243 253 254 244 209 226 259 306 141 152 155 156 156 155 156 163 163 162 161 160 159 159 157 155 153 150 147 143 139 136 135 135 135 133 131 129 126 122 118 115 110
195 209 233 240 246 239 227 201 216 234 248 235 191 209 270 250 169 150 149 147 151 156 157 162 164 163 162 162 161 161 160 158 155 153 149 144 141 141 140 139 138 135 132 129 127 123 119 116 112
197 220 240 236 238 244 216 203 210 209 238 221 175 194 229 205 152 140 142 148 154 161 162 161 159 160 161 161 161 160 160 158 156 153 145 143 144 144 142 139 138 136 134 132 128 123 120 116 113
191 227 235 228 224 234 199 217 226 213 212 217 206 207 213 143 145 147 154 161 168 171 169 164 160 159 157 156 161 159 158 157 153 148 143 137 127 128 134 136 141 140 138 135 131 124 117 111 108
205 230 238 235 226 231 232 229 225 228 235 234 244 283 136 148 161 169 175 176 178 180 177 170 165 161 159 160 157 157 153 150 141 136 133 122 118 123 126 140 142 141 138 133 129 119 105 91 81
226 239 251 254 253 254 257 256 233 223 240 223 213 193 165 169 176 184 187 187 185 181 177 173 168 163 162 158 155 152 145 141 135 135 130 126 119 121 116 121 130 123 116 99 101 89 81 85 88
247 253 256 262 263 262 259 263 251 235 242 236 215 184 178 185 189 192 192 192 187 183 182 175 170 165 163 157 157 152 149 147 146 145 141 137 132 129 128 118 113 103 98 98 91 92 90 87 90
246 257 261 266 268 268 269 258 257 255 258 258 231 192 192 195 199 200 198 194 189 189 184 178 173 170 165 159 161 159 157 155 151 149 150 147 145 145 141 133 125 120 114 113 110 106 104 98 94
255 270 274 270 263 261 264 267 255 257 253 242 214 203 203 204 201 198 197 197 194 192 189 180 177 174 167 167 166 163 160 156 154 157 158 155 151 151 149 145 140 135 132 128 126 125 118 109 108
265 276 274 255 250 246 266 268 245 248 235 231 223 216 211 212 207 205 201 199 196 193 189 184 180 176 174 171 168 165 164 161 163 163 161 161 157 156 154 153 154 151 139 129 117 110 104 108 106
258 256 259 248 230 232 225 257 257 241 222 234 231 221 217 216 214 211 206 203 198 193 190 187 184 181 179 175 171 168 167 166 167 165 166 167 163 159 156 160 165 153 140 134 132 124 113 112 118
231 244 254 271 230 229 225 259 272 239 230 241 238 228 221 219 219 213 204 203 199 195 192 189 187 183 181 176 172 168 168 171 170 168 170 173 170 165 162 167 165 152 143 144 146 128 131 141 140
241 250 257 258 254 253 252 263 274 263 239 239 239 237 229 222 222 211 204 200 199 197 193 192 189 184 179 175 169 167 170 176 175 176 177 174 174 170 166 166 163 154 149 152 148 136 122 132 139
264 269 269 273 278 271 264 267 270 267 250 242 239 235 233 231 225 211 204 198 194 195 194 195 191 185 180 180 181 181 185 183 183 182 179 178 176 173 172 170 164 164 166 167 155 138 133 123 122
260 268 272 282 276 272 269 269 268 257 247 236 235 234 232 235 226 210 201 198 196 197 197 197 196 190 186 188 186 184 176 177 179 179 182 184 181 178 179 174 174 171 164 162 163 148 138 134 144
260 251 260 272 296 274 273 276 255 251 246 242 237 236 234 228 224 214 203 200 197 199 199 199 199 194 191 184 174 162 156 156 175 188 190 189 185 182 182 180 175 174 172 176 176 167 156 157 171
271 245 256 272 281 278 258 283 272 251 249 245 237 233 233 232 225 216 207 202 202 204 200 200 199 196 192 184 181 180 184 190 194 187 186 183 185 184 184 180 179 178 178 177 179 175 164 152 166
251 257 259 262 264 277 241 253 277 243 245 244 235 228 230 227 218 212 209 207 208 205 200 199 198 196 193 190 188 188 193 195 176 168 176 183 186 187 186 183 182 182 183 181 176 172 174 169 165
264 301 284 265 238 256 226 219 274 235 230 245 237 232 229 222 216 215 213 208 211 205 202 198 196 197 193 193 192 193 194 186 174 177 183 186 186 188 189 186 186 186 184 182 180 178 179 180 171
257 31 325 326 237 248 223 224 253 251 244 238 240 240 233 225 221 220 215 210 212 207 203 199 197 199 195 195 197 197 196 191 189 186 187 184 185 190 192 188 188 186 185 181 176 176 181 180 179
247 190 214 246 241 281 253 237 254 261 264 266 265 269 270 252 232 224 217 215 215 212 206 200 199 200 196 197 200 200 196 194 195 190 187 189 192 192 184 187 188 185 181 179 177 177 182 181 185
260 221 225 267 284 268 257 273 294 293 315 320 320 316 294 277 257 243 233 222 218 213 207 203 201 201 197 198 199 199 197 196 196 190 187 189 187 180 179 184 185 183 180 178 176 181 182 179 187
222 208 120 232 264 263 267 260 265 311 316 333 337 328 310 296 279 263 252 236 228 219 210 205 203 202 198 195 197 198 197 197 194 187 189 189 184 177 176 180 181 179 179 178 177 178 179 179 184
242 226 209 236 253 264 281 274 235 279 334 336 328 328 320 311 294 282 272 251 236 222 208 204 203 201 199 196 195 194 195 193 189 190 191 188 181 178 179 180 179 180 180 179 180 182 178 181 181
231 227 185 238 266 250 270 273 292 349 347 339 332 331 328 320 310 302 289 270 243 221 209 204 201 199 199 195 192 192 191 187 188 191 189 184 181 181 179 176 177 180 180 180 181 182 181 182 183